GFSFLT2_850_spd_195.txt.gz
Wind_Speed
27 26 33 32 34 33 29 27 28 27 29 27 25 27 28 28 25 23 21 20 19 18 16 14 12 13 12
28 27 25 31 32 30 29 32 31 27 27 29 28 28 29 29 28 26 24 21 20 19 17 16 14 13 17
31 27 24 21 30 31 33 34 32 25 24 26 30 28 30 31 30 28 26 23 21 20 18 17 16 14 14
30 29 33 34 29 29 29 27 28 23 26 26 27 30 28 30 30 29 27 25 23 22 20 19 18 16 15
30 30 32 28 27 27 30 30 32 31 31 25 23 22 21 23 26 28 28 26 24 23 22 20 19 18 17
31 30 27 27 29 28 29 32 32 26 24 25 22 26 27 26 24 24 25 26 25 24 23 21 20 20 19
29 30 30 25 26 25 28 30 32 29 27 34 29 27 24 25 23 22 21 23 24 24 23 21 20 20 20
29 31 29 28 29 27 27 29 34 31 28 33 30 29 25 25 22 20 21 21 20 20 21 21 20 20 20
28 28 28 27 22 22 26 26 28 29 27 27 31 28 26 23 21 21 18 22 24 23 23 23 22 20 21
31 31 29 29 27 21 23 28 30 27 19 19 26 23 22 14 11 19 18 19 19 22 23 23 24 23 21
31 31 29 27 26 22 21 23 27 31 31 23 26 22 21 20 15 14 12 8 13 20 22 22 23 22 20
25 26 25 22 24 25 26 22 24 27 24 21 24 23 22 24 22 18 18 13 11 10 18 20 21 21 19
25 26 25 25 23 25 26 24 21 22 21 19 21 19 18 22 23 18 15 14 12 12 13 16 21 22 20
25 25 25 26 27 22 24 23 20 20 16 16 18 17 18 19 18 18 16 11 10 15 16 18 20 22 21
23 23 25 24 23 21 22 23 22 20 18 15 16 17 16 15 18 18 17 17 17 18 16 20 23 22 23
24 24 25 25 24 22 20 20 22 20 17 16 16 17 18 16 15 16 16 16 17 17 18 17 16 21 23
24 22 22 20 21 20 20 19 19 16 16 16 14 15 17 17 14 12 13 14 15 17 18 19 19 18 19

GFSFLT2_850_spd_201.txt.gz
Wind_Speed
32 32 31 29 27 25 27 29 31 32 35 35 33 30 27 31 31 31 33 32 29 28 27 26 24 21 19
34 32 31 28 26 25 26 31 33 31 31 30 28 25 25 25 26 29 30 29 29 31 30 29 27 23 21
35 32 30 28 26 29 31 29 30 25 24 25 27 29 32 30 31 33 34 34 32 30 30 31 29 25 23
32 34 32 29 28 29 31 30 27 26 27 28 27 26 28 29 28 26 27 28 26 27 29 30 29 27 23
31 34 35 35 33 32 32 33 31 28 31 30 31 33 34 32 27 27 30 31 29 29 26 29 29 28 25
33 35 36 31 30 30 31 32 33 31 32 39 33 34 34 33 29 27 27 26 30 29 27 28 30 28 25
31 30 30 27 28 28 28 28 31 30 34 31 30 28 31 31 27 27 26 27 27 30 32 29 32 31 27
27 29 26 27 29 31 32 32 32 31 29 31 27 27 30 33 26 23 25 24 26 27 30 31 30 34 29
27 25 23 24 23 22 22 24 28 28 25 19 27 33 35 31 23 25 32 22 23 23 26 27 28 32 29
24 22 22 24 19 18 20 21 20 20 18 24 32 30 26 31 29 24 29 22 20 21 25 22 23 22 25
25 25 23 20 23 21 18 19 21 26 27 26 34 32 25 29 33 30 31 25 19 20 16 17 28 28 27
26 25 24 26 25 19 19 20 23 24 25 22 26 24 28 32 29 29 27 23 19 16 18 14 18 20 28
26 24 24 22 22 21 21 21 22 22 22 21 21 21 22 21 25 28 29 27 18 13 11 11 11 14 31
24 24 24 23 23 22 23 21 23 24 18 16 19 16 19 20 21 25 23 21 20 16 11 10 8 12 26
24 23 22 24 23 23 18 18 20 22 20 17 15 15 17 17 20 17 18 17 16 14 11 7 9 9 15
19 22 23 23 23 24 21 19 21 21 19 18 20 22 18 16 13 17 16 13 14 12 10 10 9 14 11
22 21 18 20 21 23 23 20 19 18 17 17 17 17 19 21 20 16 17 18 16 14 10 9 10 9 15

GFSFLT2_850_spd_204.txt.gz
Wind_Speed
32 30 28 25 24 23 22 23 27 30 28 28 28 29 29 28 28 30 32 27 27 29 28 26 27 27 31
32 30 30 28 25 25 22 22 25 24 25 25 26 25 26 26 28 28 28 33 33 32 32 32 31 28 30
32 31 30 30 31 29 28 26 25 23 22 23 24 24 25 28 29 30 30 30 31 30 33 30 29 29 30
31 32 32 34 35 35 32 29 29 27 25 25 27 27 30 30 32 32 32 32 31 32 33 31 30 28 31
30 33 35 35 33 31 31 31 30 27 27 26 27 31 33 30 31 31 27 27 31 32 32 32 33 32 29
31 33 33 32 32 29 29 33 36 33 30 34 31 32 31 28 27 26 27 27 27 31 32 30 29 31 33
30 31 31 31 29 28 30 31 34 34 32 33 28 29 24 26 27 28 27 23 26 29 32 33 32 30 34
28 30 31 30 24 26 28 29 30 30 26 27 28 27 31 33 31 21 22 23 28 31 30 30 31 33 32
28 29 29 24 23 25 25 26 28 25 23 21 24 35 37 37 33 24 24 26 30 30 25 26 25 31 32
26 22 23 23 23 20 23 24 24 21 18 28 33 31 27 36 34 31 30 26 28 31 25 22 25 31 28
29 28 26 25 24 25 24 19 23 28 24 22 30 30 22 29 36 31 29 30 29 29 26 19 18 18 18
30 30 26 24 23 22 21 20 23 26 23 22 28 26 29 31 32 32 30 31 28 25 22 20 16 15 18
31 30 24 22 21 23 25 24 22 23 22 21 21 24 26 28 28 30 32 32 21 27 25 19 17 12 12
28 27 23 25 23 21 25 25 23 20 17 14 15 19 24 24 25 28 24 25 27 24 20 16 13 9 5
23 23 22 22 22 22 23 23 24 24 22 16 13 18 21 22 19 17 19 22 21 20 18 14 11 8 4
23 23 18 20 22 21 21 23 26 24 20 18 18 21 21 20 11 18 19 21 22 19 17 14 10 8 4
20 15 15 17 18 19 20 21 22 19 18 19 20 19 20 22 24 16 20 18 21 20 15 13 12 8 5

GFSFLT2_850_spd_207.txt.gz
Wind_Speed
30 29 28 26 26 25 23 24 26 27 27 26 25 25 25 26 27 27 25 26 28 27 28 29 30 29 29
30 29 28 27 28 30 29 27 25 23 25 25 25 25 24 25 27 29 30 31 33 33 32 32 30 32 31
29 28 29 28 30 31 30 29 26 25 24 24 24 25 27 27 29 31 31 31 32 32 33 33 33 33 33
29 29 29 30 31 32 32 31 30 29 27 24 24 25 26 28 30 29 28 27 27 28 29 32 34 36 35
29 29 30 31 31 30 33 32 32 32 30 27 27 27 27 27 27 26 25 28 30 30 28 28 31 34 34
28 28 30 31 29 31 32 30 31 31 32 33 30 29 26 25 26 29 31 32 29 25 27 31 32 33 34
24 26 28 27 29 31 29 28 31 33 27 34 31 30 25 25 28 33 31 26 26 25 28 32 32 34 33
27 27 28 28 27 27 26 28 32 31 25 29 29 28 31 35 34 32 27 26 26 28 30 30 32 34 32
25 24 23 22 23 25 27 27 31 33 24 24 22 35 36 36 30 29 32 26 25 23 30 31 31 33 32
26 24 25 25 25 25 25 25 30 26 19 26 33 29 33 36 38 36 33 25 24 28 30 29 28 30 31
25 31 29 27 27 26 24 25 24 25 29 27 31 32 29 33 41 39 32 28 27 31 26 28 31 26 27
33 32 30 29 26 21 23 22 23 26 28 25 29 27 28 34 37 39 35 30 28 26 32 31 29 23 20
29 31 28 26 25 23 24 25 25 25 24 21 19 23 23 28 33 36 34 30 22 28 29 29 27 23 20
26 28 26 24 24 22 23 21 26 28 23 20 19 21 25 27 29 33 25 26 28 27 28 27 23 19 18
21 21 23 23 23 21 20 20 25 26 29 25 17 20 22 25 28 22 23 23 23 24 28 26 23 18 14
21 23 22 18 16 15 18 20 21 23 25 23 19 22 23 22 18 21 21 23 22 23 25 24 22 19 12
20 19 20 18 17 18 19 18 19 22 23 17 17 20 22 24 23 16 24 21 21 23 22 21 20 19 13

GFSFLT2_850_spd_213.txt.gz
Wind_Speed
25 25 25 24 23 22 22 22 23 23 23 23 24 26 28 29 26 23 23 25 26 26 25 24 25 25 27
27 26 25 23 23 23 22 23 25 24 24 24 25 23 23 25 27 29 30 30 29 28 24 24 26 26 27
28 28 28 26 26 26 25 25 25 24 24 25 23 22 23 24 24 25 27 27 25 23 25 27 28 27 27
27 28 28 28 27 28 28 26 27 26 25 24 24 24 24 24 24 25 25 22 24 27 28 28 26 25 26
26 27 28 27 26 27 28 29 28 27 28 23 27 28 26 27 26 23 23 26 28 28 27 26 26 26 28
25 27 25 25 26 24 26 27 23 20 24 29 29 30 30 28 25 25 26 26 25 26 29 30 31 29 30
24 26 27 25 24 24 23 23 26 27 28 31 30 32 29 26 27 28 25 23 26 26 30 30 29 29 28
21 23 25 23 23 23 24 27 29 31 31 32 28 31 30 29 28 24 24 26 26 28 31 29 26 28 30
19 19 20 20 21 24 26 27 29 30 26 28 26 31 34 31 28 29 30 27 25 28 30 26 24 26 30
22 21 21 22 22 23 26 25 28 29 23 21 25 26 27 25 33 35 34 30 28 27 26 23 25 26 31
22 23 23 23 22 22 23 25 27 29 29 26 27 25 26 33 37 38 36 35 31 28 26 28 26 26 32
22 23 22 22 22 22 23 24 24 28 26 23 28 24 27 34 40 41 39 34 30 26 32 32 28 29 30
21 20 22 24 23 22 21 22 21 21 22 22 24 25 25 30 38 38 38 35 25 30 31 32 31 32 36
17 19 19 21 21 20 22 19 18 16 14 16 17 21 26 29 31 34 31 30 30 26 30 33 30 31 32
17 20 21 21 20 20 19 20 21 21 21 18 15 19 24 26 30 28 24 26 23 27 30 35 31 30 31
19 20 21 20 22 21 20 21 22 22 21 20 19 21 25 28 22 25 25 26 27 27 28 33 34 29 29
22 22 21 21 22 22 21 21 21 21 22 23 22 19 24 27 29 22 25 26 26 27 29 31 32 30 28

GFSFLT2_850_spd_216.txt.gz
Wind_Speed
20 22 23 23 24 24 24 24 23 22 21 21 22 24 26 26 27 28 28 28 26 24 25 24 24 25 27
20 19 22 23 23 23 21 20 19 21 22 24 24 25 24 25 25 26 26 27 29 29 24 25 26 27 28
19 17 20 20 19 20 17 17 17 21 23 24 25 24 24 24 24 25 25 25 25 23 26 28 28 29 29
15 16 16 16 16 17 18 18 18 19 21 20 23 23 24 25 25 26 24 23 23 25 26 25 26 27 28
15 16 16 16 18 19 20 19 19 18 18 19 21 22 22 22 23 24 25 26 27 24 23 26 28 29 30
15 17 18 18 19 19 21 21 22 18 18 25 22 25 25 22 25 25 27 27 23 23 26 26 28 31 31
14 16 17 17 18 20 21 23 23 21 24 27 22 23 22 22 25 27 26 24 25 25 27 27 29 30 28
16 16 17 18 19 21 25 26 25 25 20 29 24 26 23 23 26 25 27 29 25 26 27 27 29 29 28
14 17 19 20 20 21 21 23 27 25 23 27 26 25 26 26 19 22 31 32 31 29 28 28 27 28 32
14 14 15 18 19 18 17 20 23 28 19 22 26 27 28 23 22 33 33 36 35 33 29 25 26 31 32
16 13 13 13 14 15 16 18 23 27 28 23 28 28 27 33 29 38 40 41 37 31 29 26 30 29 32
13 12 14 16 18 19 20 21 23 26 26 23 25 27 29 35 35 38 41 39 35 31 27 31 31 32 31
14 15 16 18 19 20 19 19 22 22 19 18 21 22 22 26 33 38 39 38 29 30 30 31 34 34 37
15 15 16 17 19 19 20 20 21 23 20 21 21 23 25 26 28 35 34 29 31 28 30 33 34 33 33
15 17 20 21 21 20 20 21 23 25 26 23 21 22 23 25 29 31 29 27 26 30 31 35 36 33 32
18 20 20 20 21 20 20 21 22 24 24 22 21 25 25 23 23 28 28 26 29 30 31 31 40 34 30
20 20 21 21 21 23 21 20 21 22 22 22 21 21 20 23 25 20 25 31 29 29 30 34 37 34 32

GFSFLT2_850_spd_219.txt.gz
Wind_Speed
16 19 22 20 20 20 20 19 17 19 18 20 21 21 23 24 24 26 26 26 27 28 27 23 23 24 26
18 19 21 21 22 19 19 18 18 19 20 21 21 22 22 23 24 24 25 25 26 27 26 26 27 28 27
18 17 19 20 20 21 19 19 18 18 18 20 21 20 21 22 23 24 25 24 22 22 25 27 27 27 27
13 17 18 19 17 18 20 20 18 18 19 17 18 21 23 21 22 24 24 25 24 24 26 26 25 27 28
16 18 18 15 17 19 21 21 23 17 19 22 18 24 24 25 23 23 26 24 25 26 23 24 26 28 29
15 15 17 17 18 18 21 22 24 21 24 26 29 28 25 21 23 24 23 25 24 26 25 26 28 28 29
15 13 14 15 18 20 21 24 26 26 26 31 26 26 28 27 25 23 25 23 27 28 28 27 28 29 31
14 16 16 17 19 20 22 25 27 25 23 27 26 31 27 26 24 27 21 23 28 33 31 29 30 30 30
12 12 14 16 17 20 21 21 25 25 24 27 24 28 29 29 25 21 24 30 31 36 34 32 29 29 30
15 15 15 14 15 17 17 20 22 24 16 22 26 25 25 26 22 29 29 33 36 39 35 30 27 27 31
16 16 15 14 17 18 19 21 22 22 25 23 26 23 22 32 32 30 28 32 37 38 33 29 27 25 31
16 16 16 18 19 20 19 19 19 22 22 20 24 22 25 29 31 32 33 32 36 35 33 34 32 31 30
18 18 19 19 19 19 19 19 19 20 20 18 21 25 25 29 31 33 33 36 35 35 33 34 36 35 37
14 15 16 17 19 19 20 22 21 22 23 22 20 19 24 27 29 33 33 34 36 31 34 36 36 36 36
15 14 16 17 18 19 21 20 22 25 26 24 22 20 22 26 28 26 27 33 32 36 35 38 38 38 38
14 15 18 19 20 19 19 23 24 23 25 24 23 26 27 27 22 24 29 32 36 33 33 35 42 39 36
17 17 17 18 18 19 20 21 23 23 23 24 25 25 28 31 31 25 29 33 33 37 35 35 39 40 33